Tracking 28920 objects as of 26-May-2024
HD Live streaming from Space Station
objects crossing your sky now

STARLINK-5751

Track STARLINK-5751 now!
10-day predictions
STARLINK-5751 is classified as:


NORAD ID: 55576
Int'l Code: 2023-020H
Perigee: 565.7 km
Apogee: 566.8 km
Inclination: 43.0 °
Period: 95.8 minutes
Semi major axis: 6937 km
RCS: Unknown
Launch date: February 12, 2023
Source: United States (US)
Launch site: AIR FORCE EASTERN TEST RANGE (AFETR)
Your satellite tracking list
Your tracking list is empty




NASA's NSSDC Master Catalog

Two Line Element Set (TLE):
1 55576U 23020H   24146.43162887 -.00003182  00000-0 -22068-3 0  9998
2 55576  42.9993 288.1668 0000743 301.2131  58.8638 15.02526802 70950
Source of the keplerian elements: AFSPC